Tracking 29892 objects as of 21-Nov-2024
HD Live streaming from Space Station
objects crossing your sky now

CZ-6A DEB

Track CZ-6A DEB now!
10-day predictions


NORAD ID: 54396
Int'l Code: 2022-151DU
Perigee: 516.6 km
Apogee: 629.4 km
Inclination: 98.5 °
Period: 96.0 minutes
Semi major axis: 6943 km
RCS: Unknown
Launch date: November 11, 2022
Source: People's Republic of China (PRC)
Launch site: Taiyaun Space Center, China (TSC)

Note: This is SATELLITE DEBRIS
Your satellite tracking list
Your tracking list is empty




NASA's NSSDC Master Catalog

Two Line Element Set (TLE):
1 54396U 22151DU  24324.58005229  .00077842  00000-0  57357-2 0  9991
2 54396  98.4944  11.4125 0081205 128.2079 232.6491 15.00338932108152
Source of the keplerian elements: AFSPC